• Currently

    Reported at Minneapolis, Minneapolis-St. Paul International Airport, MN
    6:53 PM CST WED APR 26 2017
  • 39°F4°C
  • Drizzle
    Drizzle
  • Feels Like:33°F0°CDew Point:32°F0°CHumidity:75% Winds:N 12 mph 19 kph
    Pressure:29.56 in1001 hPaVisibility:10.00 miles16090.00 meters
Time Weather Temp Dew Point
Humidity Winds Visibility Pressure Precipitation
1 hr 24 hr
Thursday, April 20
23:53 23:53 Cloudy Cloudy 46°F8°C 43°F6°C 89% NE 13 mphNE 20 kph 10.0 miles16.1 km 29.88 in1012 hPa 0.00 in0.00 mm --
23:14 23:14 Cloudy Cloudy 46°F8°C 43°F6°C 87% NNE 10 mphNNE 17 kph 10.0 miles16.1 km 29.91 in1013 hPa 0.00 in0.00 mm --
22:53 22:53 Cloudy Cloudy 47°F8°C 43°F6°C 86% NE 12 mphNE 19 kph 10.0 miles16.1 km 29.91 in1013 hPa 0.00 in0.03 mm --
22:44 22:44 Cloudy Cloudy 47°F8°C 43°F6°C 86% NE 13 mphNE 20 kph 10.0 miles16.1 km 29.91 in1013 hPa 0.00 in0.03 mm --
22:29 22:29 Cloudy Cloudy 47°F8°C 43°F6°C 86% NE 15 mphNE 24 kph 10.0 miles16.1 km 29.91 in1013 hPa 0.00 in0.03 mm --
21:53 21:53 Cloudy Cloudy 47°F8°C 43°F6°C 86% NE 13 mphNE 20 kph 10.0 miles16.1 km 29.94 in1014 hPa 0.00 in0.03 mm --
20:53 20:53 Cloudy With Light Rain Cloudy With Light Rain 47°F8°C 44°F7°C 90% NNE 12 mphNNE 19 kph 10.0 miles16.1 km 29.94 in1014 hPa 0.03 in19.35 mm --
20:21 20:21 Cloudy With Light Rain Cloudy With Light Rain 47°F8°C 43°F6°C 86% N 13 mphN 20 kph 9.0 miles14.5 km 29.97 in1015 hPa 0.02 in12.90 mm --
20:05 20:05 Cloudy With Light Rain Cloudy With Light Rain 46°F8°C 43°F6°C 89% N 10 mphN 17 kph 10.0 miles16.1 km 29.97 in1015 hPa 0.01 in6.45 mm --
19:53 19:53 Cloudy With Rain Cloudy With Rain 46°F8°C 43°F6°C 89% NNW 9 mphNNW 15 kph 6.0 miles9.7 km 29.97 in1015 hPa 0.22 in141.94 mm --
19:37 19:37 Cloudy With Rain Cloudy With Rain 47°F8°C 43°F6°C 86% NE 7 mphNE 11 kph 3.0 miles4.8 km 29.97 in1015 hPa 0.17 in109.68 mm --
19:30 19:30 Cloudy With Light Rain Cloudy With Light Rain 46°F8°C 43°F6°C 87% E 9 mphE 15 kph 6.0 miles9.7 km 29.97 in1015 hPa 0.00 in0.00 mm --
19:11 19:11 Cloudy With Nearby Thunderstorms Cloudy With Nearby Thunderstorms 46°F8°C 43°F6°C 89% E 21 mphE 33 kph 4.0 miles6.4 km 29.94 in1014 hPa 0.06 in38.71 mm --
18:56 18:56 Cloudy With Nearby Thunderstorms Cloudy With Nearby Thunderstorms 46°F8°C 43°F6°C 89% ENE 13 mphENE 20 kph 3.0 miles4.8 km 30 in1016 hPa 0.01 in6.45 mm --
18:53 18:53 Cloudy With Nearby Thunderstorms Cloudy With Nearby Thunderstorms 46°F8°C 43°F6°C 89% NE 12 mphNE 19 kph 3.0 miles4.8 km 30.03 in1017 hPa 0.19 in122.58 mm --
18:50 18:50 Cloudy With Rain Cloudy With Rain 46°F8°C 43°F6°C 87% NNE 9 mphNNE 15 kph 3.0 miles4.8 km 30.03 in1017 hPa 0.00 in0.00 mm --
18:42 18:42 Cloudy With Rain Cloudy With Rain 46°F8°C 43°F6°C 89% NW 10 mphNW 17 kph 4.0 miles6.4 km 30.09 in1019 hPa 0.16 in103.23 mm --
18:25 18:25 Cloudy With Rain Cloudy With Rain 46°F8°C 43°F6°C 89% NNW 10 mphNNW 17 kph 3.0 miles4.8 km 30.03 in1017 hPa 0.11 in70.97 mm --
18:03 18:03 Cloudy With Nearby Thunderstorms Cloudy With Nearby Thunderstorms 46°F8°C 41°F5°C 82% E 5 mphE 7 kph 3.0 miles4.8 km 30.03 in1017 hPa 0.00 in0.00 mm --
17:53 17:53 Cloudy With Light Rain Cloudy With Light Rain 47°F8°C 42°F6°C 83% S 6 mphS 9 kph 7.0 miles11.3 km 30 in1016 hPa 0.02 in12.90 mm --
17:45 17:45 Cloudy With Light Rain Cloudy With Light Rain 47°F8°C 42°F6°C 83% N 5 mphN 7 kph 8.0 miles12.9 km 30 in1016 hPa 0.01 in6.45 mm --
16:53 16:53 Cloudy With Light Rain Cloudy With Light Rain 47°F8°C 42°F6°C 83% E 21 mphE 33 kph 9.0 miles14.5 km 29.94 in1014 hPa 0.06 in38.71 mm --
16:30 16:30 Cloudy With Light Rain Cloudy With Light Rain 46°F8°C 43°F6°C 87% ENE 24 mphENE 39 kph 10.0 miles16.1 km 29.91 in1013 hPa 0.00 in0.00 mm --
15:53 15:53 Cloudy With Rain Cloudy With Rain 47°F8°C 42°F6°C 83% NE 20 mphNE 31 kph 4.0 miles6.4 km 29.97 in1015 hPa 0.21 in135.48 mm --
15:38 15:38 Cloudy With Rain Cloudy With Rain 46°F8°C 41°F5°C 82% ENE 6 mphENE 9 kph 2.0 miles3.2 km 30.09 in1019 hPa 0.00 in0.00 mm --
15:17 15:17 Cloudy With Rain Cloudy With Rain 48°F9°C 40°F4°C 74% S 5 mphS 7 kph 6.0 miles9.7 km 30.15 in1021 hPa 0.03 in19.35 mm --
14:53 14:53 Cloudy With Light Rain Cloudy With Light Rain 48°F9°C 40°F4°C 74% ENE 9 mphENE 15 kph 9.0 miles14.5 km 30.06 in1018 hPa 0.02 in12.90 mm --
13:53 13:53 Cloudy Cloudy 49°F9°C 37°F3°C 64% E 20 mphE 31 kph 10.0 miles16.1 km 30.03 in1017 hPa 0.00 in0.00 mm --
13:43 13:43 Cloudy Cloudy 50°F10°C 38°F3°C 63% E 16 mphE 26 kph 10.0 miles16.1 km 30.03 in1017 hPa 0.00 in0.00 mm --
12:53 12:53 Cloudy Cloudy 50°F10°C 38°F3°C 63% E 9 mphE 15 kph 10.0 miles16.1 km 30.09 in1019 hPa 0.00 in0.00 mm --
12:10 12:10 Cloudy Cloudy 50°F10°C 37°F3°C 62% E 8 mphE 13 kph 10.0 miles16.1 km 30.12 in1020 hPa 0.00 in0.00 mm --
11:53 11:53 Cloudy Cloudy 49°F9°C 38°F3°C 66% N 5 mphN 7 kph 10.0 miles16.1 km 30.15 in1021 hPa 0.00 in0.00 mm --
11:50 11:50 Cloudy Cloudy 50°F10°C 37°F3°C 62% N 3 mphN 6 kph 10.0 miles16.1 km 30.15 in1021 hPa 0.00 in0.00 mm --
11:41 11:41 Cloudy Cloudy 49°F9°C 37°F3°C 64% N 5 mphN 7 kph 10.0 miles16.1 km 30.12 in1020 hPa 0.00 in0.00 mm --
11:28 11:28 Cloudy Cloudy 50°F10°C 37°F3°C 62% ENE 7 mphENE 11 kph 10.0 miles16.1 km 30.12 in1020 hPa 0.00 in0.00 mm --
11:11 11:11 Cloudy Cloudy 49°F9°C 38°F3°C 66% E 9 mphE 15 kph 10.0 miles16.1 km 30.12 in1020 hPa 0.00 in0.00 mm --
10:53 10:53 Cloudy Cloudy 49°F9°C 38°F3°C 66% ENE 9 mphENE 15 kph 10.0 miles16.1 km 30.12 in1020 hPa 0.00 in0.00 mm --
09:53 09:53 Cloudy Cloudy 47°F8°C 37°F3°C 69% NE 6 mphNE 9 kph 10.0 miles16.1 km 30.09 in1019 hPa 0.00 in0.00 mm --
08:53 08:53 Cloudy Cloudy 45°F7°C 36°F2°C 71% NNE 12 mphNNE 19 kph 10.0 miles16.1 km 30.06 in1018 hPa 0.00 in0.00 mm --
08:00 08:00 Cloudy Cloudy 45°F7°C 36°F2°C 71% NNE 12 mphNNE 19 kph 10.0 miles16.1 km 30.09 in1019 hPa 0.00 in0.00 mm --
07:53 07:53 Cloudy Cloudy 45°F7°C 36°F2°C 71% NNE 10 mphNNE 17 kph 10.0 miles16.1 km 30.09 in1019 hPa 0.00 in0.00 mm --
06:53 06:53 Cloudy Cloudy 45°F7°C 37°F3°C 74% N 7 mphN 11 kph 10.0 miles16.1 km 30.09 in1019 hPa 0.00 in0.00 mm --
05:53 05:53 Cloudy Cloudy 45°F7°C 36°F2°C 71% N 13 mphN 20 kph 10.0 miles16.1 km 30.06 in1018 hPa 0.00 in0.00 mm --
04:53 04:53 Cloudy Cloudy 46°F8°C 36°F2°C 68% N 10 mphN 17 kph 10.0 miles16.1 km 30.06 in1018 hPa 0.00 in0.00 mm --
03:53 03:53 Cloudy Cloudy 46°F8°C 38°F3°C 73% NNW 9 mphNNW 15 kph 10.0 miles16.1 km 30.06 in1018 hPa 0.00 in0.00 mm --
02:53 02:53 Cloudy Cloudy 47°F8°C 39°F4°C 74% N 14 mphN 22 kph 10.0 miles16.1 km 30.03 in1017 hPa 0.00 in0.00 mm --
01:53 01:53 Cloudy Cloudy 48°F9°C 39°F4°C 71% NNW 9 mphNNW 15 kph 10.0 miles16.1 km 30.03 in1017 hPa 0.00 in0.00 mm --
00:53 00:53 Cloudy Cloudy 48°F9°C 39°F4°C 71% N 14 mphN 22 kph 10.0 miles16.1 km 30.03 in1017 hPa 0.00 in0.00 mm --